sat.trackr.live / text

‹ back to catalog

STARLINK-35688

NORAD 67019 · 2025-293S

PAYLOAD ACTIVE UNKNOWN

§ Identity

Operator
Country
US
Launch date
2025-12-10
Launch site
AFWTR
Launch vehicle
Mass (kg)
RCS (m²)

Purposes: comms

External: N2YO · Heavens-Above · Gunter

§ Orbital elements

Epoch: 2026-09-20T13:37:10.576992Z

Period
96.11 min
Inclination
70.0016°
Eccentricity
0.0003779
Mean motion
14.98323516 rev/d
Perigee alt
569.4 km
Apogee alt
574.7 km
Semi-major
6,950.2 km
B*
2.3044e-4
RAAN
323.3013°
Arg perigee
271.4724°
Mean anomaly
88.6002°
Rev number
4,407

§ Raw data

STARLINK-356881 67019U 25293S   26263.56748353  .00002657  00000+0  23044-3 0  99992 67019  70.0016 323.3013 0003779 271.4724  88.6002 14.98323516 44078

JSON: /api/v1/satellites/67019 · /tle

For live sub-satellite position, see the globe view (requires WebGL).

§ Visibility from observer

Set your observer location to see the next 7 days of passes ≥ 10°. The values pass through the URL so the page stays shareable.

No JS? Fill the form by hand. The geolocation button needs JavaScript.